Temp
-11 -11 -11 -11 -11 -11 -11 -11 -11 -11 -11 -11 -11 -11 -12 -12 -11 -11 -10 -10 -10 -10 -10 -10 -10 -11 -11 -11 -12 -12 -12 -13 -13 -13 -13 -13 -13 -14 -14 -15 -15 -15 -16 -16
-11 -11 -11 -11 -11 -11 -11 -11 -11 -11 -11 -11 -11 -11 -11 -12 -11 -11 -10 -10 -10 -10 -10 -10 -10 -11 -11 -11 -12 -12 -13 -13 -12 -12 -13 -13 -13 -14 -14 -15 -15 -16 -16 -16
-11 -11 -11 -11 -11 -11 -11 -11 -11 -11 -11 -11 -11 -10 -11 -12 -12 -10 -10 -10 -10 -10 -10 -10 -10 -11 -11 -12 -12 -12 -12 -12 -12 -13 -13 -13 -14 -14 -15 -15 -16 -16 -16 -16
-11 -10 -11 -11 -11 -11 -11 -11 -11 -11 -11 -10 -11 -9 -10 -11 -12 -12 -11 -10 -10 -9 -9 -10 -10 -11 -11 -12 -12 -12 -12 -12 -12 -13 -13 -13 -14 -14 -15 -16 -16 -16 -16 -17
-10 -11 -11 -11 -11 -11 -10 -11 -11 -11 -11 -11 -10 -11 -9 -11 -11 -11 -11 -11 -10 -10 -10 -10 -10 -11 -11 -11 -12 -12 -12 -12 -13 -13 -13 -14 -14 -15 -15 -16 -16 -16 -17 -17
-10 -10 -11 -11 -11 -11 -11 -11 -11 -11 -11 -11 -10 -11 -9 -11 -11 -11 -11 -11 -11 -10 -10 -11 -11 -11 -11 -12 -12 -12 -12 -12 -13 -13 -14 -14 -14 -15 -15 -16 -16 -17 -17 -18
-11 -11 -11 -11 -11 -11 -11 -12 -12 -11 -11 -11 -11 -10 -10 -11 -11 -11 -11 -11 -11 -11 -11 -11 -11 -11 -12 -12 -12 -12 -12 -13 -13 -13 -14 -14 -15 -15 -16 -16 -17 -17 -17 -18
-11 -11 -11 -11 -11 -11 -12 -12 -12 -11 -11 -11 -10 -9 -10 -11 -11 -11 -11 -11 -11 -11 -12 -12 -11 -12 -12 -12 -12 -13 -13 -13 -13 -14 -14 -15 -15 -16 -16 -17 -17 -18 -18 -18
-11 -11 -11 -11 -11 -12 -11 -12 -12 -12 -11 -10 -10 -10 -10 -11 -11 -11 -11 -11 -11 -11 -12 -12 -12 -12 -12 -12 -12 -13 -13 -13 -13 -14 -15 -15 -16 -16 -16 -17 -17 -18 -18 -19
-12 -12 -11 -11 -11 -11 -11 -12 -12 -12 -11 -11 -9 -10 -10 -11 -11 -11 -11 -11 -11 -11 -12 -12 -12 -12 -13 -13 -13 -13 -14 -14 -14 -14 -15 -15 -16 -16 -17 -17 -17 -18 -18 -19
-12 -11 -11 -11 -10 -11 -11 -11 -12 -12 -12 -11 -10 -9 -11 -12 -12 -12 -12 -12 -12 -12 -12 -11 -12 -12 -13 -14 -13 -13 -14 -14 -14 -15 -15 -15 -16 -17 -17 -17 -18 -18 -18 -19
-12 -12 -11 -11 -11 -11 -11 -11 -11 -11 -11 -11 -11 -10 -12 -12 -13 -13 -13 -12 -12 -12 -12 -12 -12 -12 -12 -13 -13 -13 -14 -14 -15 -15 -16 -16 -16 -17 -17 -17 -18 -18 -18 -19
-12 -12 -12 -11 -11 -11 -10 -11 -11 -11 -12 -11 -11 -10 -11 -12 -13 -13 -13 -13 -13 -13 -13 -13 -13 -13 -13 -12 -13 -13 -14 -14 -15 -15 -16 -16 -17 -17 -17 -17 -18 -18 -19 -19
-13 -12 -12 -12 -12 -12 -11 -12 -12 -12 -11 -11 -10 -11 -12 -13 -14 -14 -14 -14 -14 -13 -13 -13 -13 -12 -12 -12 -13 -14 -14 -15 -15 -16 -16 -17 -17 -17 -17 -18 -18 -18 -19 -19
-13 -13 -13 -13 -13 -12 -12 -12 -12 -11 -12 -11 -11 -10 -11 -12 -14 -14 -14 -14 -14 -14 -13 -13 -13 -13 -13 -13 -13 -14 -15 -15 -16 -16 -17 -17 -17 -17 -17 -18 -18 -18 -19 -20
-14 -14 -14 -14 -13 -13 -12 -12 -12 -11 -12 -11 -12 -11 -13 -13 -14 -14 -14 -14 -14 -13 -13 -13 -13 -13 -13 -13 -14 -14 -15 -16 -16 -16 -16 -17 -17 -17 -18 -18 -18 -18 -19 -20
-15 -15 -15 -14 -15 -15 -12 -12 -13 -13 -13 -14 -12 -12 -13 -14 -14 -14 -14 -13 -13 -14 -14 -14 -14 -14 -13 -14 -14 -15 -16 -16 -16 -16 -16 -16 -17 -17 -18 -18 -18 -18 -19 -20
-17 -17 -16 -16 -16 -14 -12 -12 -13 -14 -14 -14 -13 -13 -14 -13 -13 -13 -13 -13 -13 -13 -14 -14 -14 -14 -14 -14 -15 -15 -16 -16 -16 -16 -16 -17 -17 -17 -18 -18 -18 -18 -19 -20
-17 -17 -17 -17 -17 -15 -13 -14 -14 -14 -14 -16 -14 -15 -15 -13 -13 -14 -14 -14 -14 -13 -13 -14 -14 -14 -14 -15 -15 -15 -16 -16 -16 -16 -17 -17 -17 -18 -18 -18 -18 -18 -19 -20
-17 -18 -18 -18 -18 -16 -14 -15 -15 -15 -15 -17 -16 -16 -16 -15 -15 -15 -15 -15 -14 -14 -14 -15 -15 -15 -15 -15 -15 -16 -16 -16 -16 -17 -17 -17 -17 -18 -18 -18 -18 -18 -19 -20
-18 -18 -18 -18 -18 -16 -16 -17 -16 -16 -16 -17 -17 -17 -17 -17 -17 -17 -16 -16 -15 -15 -15 -15 -15 -15 -15 -16 -16 -16 -16 -17 -16 -17 -17 -17 -17 -17 -18 -18 -18 -18 -19 -20
-19 -19 -18 -19 -19 -16 -16 -17 -18 -18 -18 -18 -17 -17 -17 -17 -17 -17 -17 -17 -16 -16 -16 -16 -17 -16 -16 -16 -16 -16 -17 -17 -17 -17 -17 -17 -17 -18 -18 -18 -18 -18 -19 -20
-20 -19 -20 -20 -19 -18 -18 -18 -18 -18 -19 -19 -18 -18 -18 -18 -18 -18 -18 -17 -18 -18 -18 -17 -17 -17 -17 -16 -17 -17 -17 -17 -17 -17 -17 -17 -17 -18 -18 -18 -18 -18 -19 -20
-20 -20 -20 -20 -18 -19 -19 -19 -19 -19 -19 -19 -19 -18 -18 -18 -18 -18 -18 -18 -18 -18 -18 -17 -18 -18 -18 -17 -17 -17 -17 -17 -17 -17 -17 -18 -17 -18 -18 -18 -18 -18 -19 -20
-20 -20 -20 -20 -19 -19 -19 -19 -19 -19 -19 -19 -19 -19 -19 -19 -18 -19 -18 -18 -18 -18 -18 -18 -18 -18 -18 -18 -18 -18 -17 -17 -17 -17 -18 -18 -18 -18 -18 -18 -18 -18 -19 -20
-20 -20 -20 -20 -20 -20 -20 -20 -20 -20 -20 -19 -19 -19 -19 -19 -18 -19 -19 -19 -18 -19 -18 -18 -18 -18 -18 -18 -18 -18 -18 -18 -18 -18 -18 -18 -18 -18 -18 -19 -19 -19 -19 -21
Height
5769 5771 5773 5773 5772 5774 5776 5776 5777 5774 5774 5774 5773 5774 5772 5769 5769 5765 5763 5762 5762 5760 5758 5757 5756 5755 5753 5751 5749 5746 5743 5739 5735 5731 5725 5720 5715 5709 5702 5695 5687 5679 5668 5659
5764 5766 5767 5768 5768 5769 5771 5771 5772 5770 5769 5768 5768 5769 5768 5766 5761 5759 5760 5758 5757 5756 5754 5753 5751 5749 5747 5746 5744 5740 5737 5734 5730 5726 5720 5715 5709 5703 5697 5690 5682 5672 5662 5653
5757 5761 5762 5762 5763 5764 5765 5765 5765 5765 5765 5763 5763 5764 5765 5762 5755 5756 5755 5755 5753 5751 5750 5749 5747 5745 5742 5740 5737 5734 5731 5727 5724 5719 5715 5709 5704 5697 5691 5684 5676 5667 5657 5647
5750 5754 5756 5757 5758 5759 5758 5760 5759 5759 5759 5760 5759 5758 5760 5756 5752 5751 5751 5750 5749 5747 5745 5744 5742 5740 5737 5735 5732 5729 5725 5721 5717 5712 5708 5703 5698 5692 5685 5678 5670 5661 5651 5641
5746 5747 5748 5749 5752 5751 5754 5753 5753 5752 5751 5753 5755 5752 5755 5751 5747 5746 5746 5746 5744 5742 5741 5739 5738 5735 5732 5730 5727 5724 5720 5716 5711 5707 5702 5698 5692 5686 5679 5672 5664 5655 5646 5636
5737 5740 5741 5744 5744 5746 5747 5748 5746 5745 5744 5742 5750 5747 5754 5745 5742 5740 5739 5739 5738 5736 5735 5733 5731 5729 5727 5724 5721 5718 5714 5710 5706 5702 5697 5692 5687 5680 5674 5667 5659 5650 5641 5631
5731 5732 5735 5736 5737 5738 5740 5740 5737 5736 5736 5735 5741 5740 5747 5742 5739 5736 5733 5733 5732 5731 5729 5727 5725 5723 5721 5718 5715 5711 5708 5705 5700 5696 5691 5686 5680 5674 5668 5661 5654 5645 5636 5626
5720 5724 5725 5728 5729 5730 5730 5730 5731 5728 5727 5726 5728 5732 5740 5736 5735 5731 5728 5727 5726 5724 5722 5721 5718 5716 5715 5712 5709 5706 5703 5699 5694 5690 5685 5680 5674 5668 5663 5656 5648 5640 5631 5622
5713 5711 5716 5718 5720 5722 5721 5721 5727 5722 5719 5717 5717 5719 5730 5730 5727 5725 5722 5720 5719 5717 5716 5715 5712 5710 5708 5706 5704 5700 5697 5693 5689 5684 5679 5674 5669 5663 5657 5651 5643 5635 5627 5618
5699 5701 5702 5706 5709 5709 5711 5717 5715 5715 5713 5709 5709 5710 5711 5724 5721 5718 5717 5714 5713 5711 5709 5706 5704 5702 5701 5700 5698 5694 5690 5686 5682 5677 5673 5669 5663 5658 5651 5645 5638 5631 5622 5614
5687 5689 5692 5694 5697 5702 5703 5703 5707 5709 5706 5705 5702 5701 5702 5707 5712 5712 5711 5709 5707 5705 5703 5699 5695 5692 5691 5692 5692 5687 5683 5679 5675 5671 5666 5662 5657 5652 5645 5640 5633 5626 5618 5610
5675 5677 5679 5683 5687 5690 5691 5693 5697 5698 5700 5697 5695 5694 5697 5699 5702 5699 5702 5703 5702 5697 5694 5693 5688 5683 5683 5684 5687 5683 5677 5672 5668 5664 5659 5654 5650 5645 5640 5634 5628 5621 5614 5607
5662 5663 5668 5672 5676 5679 5682 5687 5689 5690 5688 5684 5685 5687 5691 5694 5695 5693 5691 5691 5692 5690 5685 5682 5681 5676 5673 5673 5672 5673 5670 5665 5660 5656 5652 5647 5643 5638 5633 5627 5622 5616 5610 5604
5647 5651 5656 5662 5664 5668 5671 5675 5675 5675 5673 5676 5675 5679 5680 5683 5683 5683 5684 5682 5682 5679 5675 5674 5672 5669 5667 5666 5663 5662 5660 5657 5652 5648 5645 5640 5635 5631 5627 5621 5617 5611 5605 5600
5634 5639 5643 5647 5650 5654 5658 5661 5661 5660 5662 5658 5665 5664 5670 5676 5675 5672 5671 5672 5671 5668 5666 5666 5664 5661 5659 5657 5655 5652 5650 5647 5643 5639 5636 5632 5627 5623 5620 5616 5611 5606 5600 5595
5621 5626 5629 5632 5634 5637 5641 5645 5642 5643 5644 5648 5652 5653 5660 5664 5658 5657 5663 5660 5655 5655 5656 5655 5656 5655 5651 5648 5646 5643 5640 5637 5635 5630 5627 5624 5620 5616 5613 5610 5606 5601 5596 5591
5608 5612 5615 5617 5619 5621 5626 5631 5633 5635 5633 5637 5636 5647 5643 5642 5645 5646 5644 5644 5646 5644 5645 5644 5643 5642 5641 5639 5636 5634 5630 5628 5626 5623 5620 5616 5613 5609 5606 5604 5600 5595 5591 5586
5596 5599 5601 5603 5605 5607 5619 5621 5623 5623 5622 5620 5622 5629 5629 5631 5631 5631 5631 5631 5634 5634 5633 5633 5631 5630 5629 5627 5625 5624 5623 5620 5618 5615 5612 5609 5606 5602 5600 5598 5594 5590 5586 5582
5584 5587 5589 5591 5593 5600 5608 5612 5613 5612 5611 5612 5612 5613 5614 5615 5619 5622 5619 5621 5620 5622 5622 5621 5620 5619 5619 5619 5617 5616 5614 5612 5609 5607 5605 5602 5600 5596 5594 5592 5588 5584 5580 5576
5572 5576 5579 5580 5580 5588 5598 5598 5601 5600 5601 5601 5599 5601 5602 5604 5607 5609 5610 5610 5610 5610 5610 5611 5610 5611 5611 5610 5609 5609 5607 5605 5603 5600 5597 5595 5592 5589 5587 5585 5582 5579 5576 5571
5559 5561 5565 5568 5568 5580 5590 5588 5589 5590 5595 5589 5588 5590 5591 5593 5596 5598 5598 5600 5600 5600 5602 5603 5603 5602 5601 5601 5600 5599 5598 5596 5593 5591 5590 5588 5584 5582 5580 5579 5576 5573 5570 5566
5545 5548 5553 5558 5558 5567 5582 5580 5579 5578 5573 5575 5577 5582 5582 5585 5587 5588 5589 5590 5592 5592 5596 5596 5596 5595 5595 5593 5593 5592 5591 5588 5586 5585 5583 5580 5578 5575 5573 5572 5570 5567 5564 5560
5526 5535 5540 5545 5548 5558 5559 5560 5562 5562 5560 5560 5565 5569 5572 5574 5576 5579 5582 5584 5587 5587 5586 5586 5588 5589 5589 5587 5586 5584 5583 5580 5578 5578 5576 5574 5571 5568 5566 5565 5563 5561 5558 5555
5514 5521 5522 5527 5543 5544 5546 5546 5547 5546 5548 5548 5551 5553 5556 5561 5565 5568 5572 5574 5575 5577 5579 5579 5578 5578 5578 5578 5578 5578 5576 5574 5572 5569 5568 5567 5564 5562 5560 5558 5556 5554 5552 5550
5503 5506 5515 5515 5527 5526 5528 5530 5531 5531 5532 5533 5536 5541 5545 5549 5552 5554 5558 5560 5563 5566 5566 5569 5571 5568 5567 5568 5568 5568 5567 5566 5565 5562 5560 5559 5557 5556 5553 5551 5549 5548 5545 5544
5489 5497 5495 5500 5510 5504 5505 5508 5511 5511 5514 5518 5522 5526 5528 5534 5538 5541 5541 5544 5546 5551 5552 5553 5556 5556 5556 5557 5558 5557 5557 5557 5555 5553 5553 5552 5549 5548 5546 5544 5542 5541 5539 5537
Wind_Speed
28 28 24 26 28 25 23 24 24 24 25 21 20 16 20 25 21 26 24 25 23 24 24 21 21 21 24 27 29 30 32 32 34 36 40 42 44 46 46 48 50 56 59 61
31 28 28 28 28 27 26 25 25 26 25 24 21 16 20 24 29 28 24 25 26 24 23 22 21 20 23 25 28 29 30 33 35 38 40 42 44 45 46 48 51 55 58 60
32 31 30 29 29 28 28 27 28 28 26 27 24 18 16 22 30 28 26 25 27 26 23 22 23 24 24 25 26 27 29 32 34 38 39 41 44 44 45 47 51 54 58 60
34 30 30 30 29 30 31 29 30 29 29 26 26 19 14 20 26 28 27 28 28 29 30 28 27 27 29 27 25 27 29 31 34 37 38 40 41 44 45 45 50 54 57 58
33 32 33 32 32 34 32 32 32 32 32 29 24 27 19 23 28 28 27 26 29 29 30 31 31 33 32 31 29 28 31 33 35 36 37 39 40 43 45 45 49 53 56 56
37 34 35 33 34 35 34 34 35 37 37 38 26 30 15 28 28 33 33 30 27 28 28 29 29 29 31 31 30 31 34 34 37 36 37 37 40 43 44 46 49 52 54 54
38 38 37 37 36 35 36 35 39 42 42 43 33 34 21 28 31 33 35 34 32 31 30 31 31 30 29 31 32 32 33 35 36 37 37 37 39 41 42 45 49 51 52 52
42 40 39 40 40 38 41 40 40 43 44 46 44 36 22 29 31 33 35 35 36 37 35 33 33 33 33 33 34 33 34 34 37 37 37 39 40 40 42 45 48 49 51 49
44 47 41 41 42 42 43 44 38 44 47 48 47 44 29 28 32 34 34 35 34 38 38 37 36 34 34 34 35 35 35 36 37 38 38 40 40 39 41 44 46 48 48 47
46 47 46 46 47 49 47 44 44 45 47 49 49 46 46 28 29 34 37 36 37 37 37 39 41 41 36 32 33 36 37 37 38 38 38 40 41 41 41 43 45 46 46 45
50 51 50 49 49 47 47 49 47 46 49 48 50 51 50 44 35 35 35 37 38 38 39 44 46 48 45 36 32 37 38 38 39 38 38 40 41 41 41 43 43 44 44 44
55 55 54 54 52 51 52 50 50 49 48 51 51 53 51 45 39 40 39 37 39 43 41 42 46 50 51 50 40 39 40 40 40 41 39 39 39 41 41 42 41 43 43 42
58 59 59 59 56 55 53 50 50 52 52 57 56 55 52 48 44 45 45 42 39 41 47 47 46 48 48 48 47 42 42 43 42 41 40 39 39 40 41 41 39 42 41 39
62 59 59 59 59 56 55 54 54 54 59 59 59 56 54 49 47 48 47 48 44 47 47 46 47 50 51 48 48 45 44 45 42 41 40 39 39 39 41 40 39 40 40 38
60 58 57 57 57 56 55 55 58 60 62 66 62 63 58 52 47 48 48 46 48 50 52 49 47 49 50 50 50 49 46 43 41 41 39 40 39 39 42 39 38 39 39 36
55 53 52 54 54 56 57 57 61 63 64 62 61 60 57 53 56 59 53 53 54 56 53 54 48 47 46 45 46 46 44 43 43 41 41 40 39 40 41 37 38 38 38 35
48 46 47 52 50 52 60 58 55 56 57 56 57 50 55 57 57 56 59 62 60 59 54 51 49 47 44 41 42 43 46 45 44 45 45 39 39 40 38 35 38 38 37 33
39 42 45 49 50 56 54 53 51 49 49 51 51 47 51 52 54 56 55 58 57 55 52 48 46 44 42 43 44 44 44 45 46 42 39 38 40 39 35 35 39 39 37 33
42 43 47 45 47 53 56 50 46 50 48 39 42 41 43 47 47 44 49 48 48 48 43 40 41 41 40 39 40 41 41 41 40 40 40 38 37 37 37 36 39 39 36 32
48 45 47 48 49 50 47 45 41 42 43 38 41 41 40 40 39 40 39 40 38 37 33 32 32 33 34 37 39 39 40 43 45 40 35 35 37 37 37 36 39 39 35 32
50 50 53 51 54 51 43 41 41 44 41 42 43 42 41 37 35 34 34 35 35 35 30 28 26 26 28 31 33 33 32 35 36 36 36 35 37 35 30 33 36 36 35 32
55 51 53 51 51 55 44 43 43 44 48 45 44 42 40 36 33 30 28 26 28 27 27 27 28 28 29 28 27 29 30 31 32 32 34 34 34 32 29 31 33 35 34 32
62 61 59 58 57 53 53 53 52 52 54 53 47 44 44 42 41 39 35 32 28 30 30 31 30 31 31 31 30 31 34 34 32 31 31 31 31 32 30 30 34 36 33 31
63 63 64 63 58 55 54 55 56 59 58 59 61 58 54 51 49 49 49 45 40 39 39 38 37 36 34 33 32 32 34 36 35 32 30 30 31 31 30 30 33 35 32 30
65 67 64 66 62 62 60 56 55 59 61 62 60 60 60 61 59 55 54 53 52 49 46 44 42 42 40 37 35 35 35 37 38 34 32 29 29 29 31 32 33 34 33 29
70 70 72 70 66 67 68 66 66 66 67 69 69 67 65 64 63 61 60 60 59 56 55 53 53 50 49 48 43 39 37 38 36 36 34 30 30 31 33 33 32 33 33 28
Wind_Direction
240 245 249 247 250 258 258 262 264 267 274 273 274 278 282 289 291 286 286 288 291 291 297 301 301 301 298 299 302 304 308 307 308 311 312 315 319 320 321 321 323 326 329 330
244 246 250 251 255 262 265 266 268 268 271 275 277 278 281 293 286 285 286 288 291 297 296 299 300 297 298 302 306 309 307 308 310 311 313 317 319 320 320 322 324 327 328 331
245 247 249 251 255 259 263 265 266 270 269 278 285 281 286 287 284 284 290 289 290 291 295 297 302 300 299 302 305 306 307 307 308 309 313 316 318 318 320 322 325 327 330 332
242 245 250 252 255 258 258 263 265 269 273 277 282 283 288 296 284 292 294 294 294 296 296 295 298 299 301 303 303 306 305 307 308 309 312 315 316 317 320 322 325 328 331 332
245 246 248 249 252 255 258 261 267 270 272 274 279 286 287 297 293 295 292 291 294 294 293 295 296 300 304 305 304 304 306 309 309 309 312 314 315 317 319 321 325 329 331 333
246 245 249 251 252 257 260 263 267 270 272 272 277 282 274 290 291 293 294 292 291 292 294 292 293 294 297 299 301 305 307 308 308 309 311 312 315 317 319 320 324 329 332 333
253 249 251 252 252 255 260 262 265 267 270 277 275 275 284 285 288 289 292 295 297 295 291 292 295 297 297 299 301 303 306 307 308 309 310 312 315 316 317 320 324 328 332 333
248 248 248 248 251 252 253 256 261 270 274 278 279 278 279 279 283 283 289 293 297 298 300 298 296 296 296 299 300 302 304 305 307 310 311 314 315 315 317 319 323 327 331 332
250 250 248 252 251 252 254 257 261 265 268 276 281 286 276 279 282 283 285 289 293 296 301 302 301 300 297 297 300 301 304 305 307 309 311 314 314 314 316 318 322 326 329 331
246 248 248 246 248 250 252 257 257 260 268 273 280 284 287 281 275 277 279 283 287 291 296 299 298 298 298 298 298 300 304 306 307 308 310 313 314 314 315 317 321 324 328 330
237 241 245 248 248 250 253 257 259 262 264 270 275 280 285 290 289 279 277 282 284 288 292 293 293 295 299 303 305 304 306 305 308 308 311 312 312 313 314 316 319 321 327 329
243 244 248 248 251 250 252 254 257 263 271 274 274 274 280 285 287 286 284 281 283 286 285 286 290 293 297 301 305 304 304 304 306 305 309 310 311 311 312 314 317 319 325 328
251 250 251 252 253 257 260 264 265 265 267 268 270 273 282 281 282 281 282 285 287 285 286 287 288 289 293 298 303 305 304 303 305 305 308 308 308 307 311 312 314 317 322 328
256 254 257 257 256 254 258 260 262 264 265 268 271 272 273 277 276 276 280 283 285 281 281 284 287 291 296 299 301 301 301 301 301 304 305 303 303 306 308 311 312 315 319 325
254 253 254 254 255 258 261 260 260 261 264 265 268 268 269 273 278 274 275 281 281 279 281 285 286 287 292 296 296 297 300 300 300 304 299 298 300 306 306 309 309 312 316 323
249 251 253 253 254 255 257 258 258 257 260 266 271 272 272 274 271 272 277 277 273 280 283 285 288 289 290 293 294 294 294 297 300 299 299 300 301 304 304 307 306 309 313 319
249 249 250 251 250 252 257 258 260 263 264 268 268 272 268 268 272 272 270 274 279 279 282 282 282 284 285 283 283 285 288 294 296 299 301 302 301 304 306 304 305 306 309 315
237 242 247 250 250 252 259 263 262 264 266 268 268 269 268 268 267 269 275 278 282 283 282 281 282 281 275 274 278 284 288 290 296 300 302 300 302 306 303 303 304 303 306 312
229 235 241 245 249 256 260 260 263 266 268 273 270 269 269 268 270 274 272 277 281 283 285 284 281 279 278 278 281 283 287 292 296 300 300 303 306 304 302 300 300 300 302 308
231 239 242 247 248 251 255 256 258 261 267 272 271 270 271 272 274 274 273 274 275 277 278 277 277 279 282 281 282 286 289 291 296 299 301 300 298 299 298 294 296 299 303 307
239 245 246 253 260 252 252 257 258 258 268 265 264 268 270 271 273 276 278 278 278 276 274 275 275 275 279 282 285 290 296 295 295 297 300 295 294 298 292 291 293 299 304 302
240 245 246 251 255 255 257 262 262 264 267 266 266 267 269 271 273 271 273 272 274 276 279 278 280 279 278 280 287 295 294 296 297 303 301 296 294 297 289 289 293 298 300 299
246 245 254 256 256 257 258 256 254 258 262 265 264 264 266 269 268 268 272 272 270 272 279 281 284 284 285 286 286 287 287 287 292 299 297 297 295 296 290 288 291 297 298 298
249 249 253 257 255 259 261 259 257 259 262 265 265 263 260 262 269 272 274 274 273 273 273 274 274 277 283 289 291 295 292 290 290 292 292 294 294 293 292 293 296 297 295 294
246 249 253 257 259 260 259 259 257 259 260 263 264 266 269 269 270 273 273 274 275 274 276 279 279 277 278 283 289 290 292 294 292 291 289 291 291 292 292 295 298 300 295 290
252 253 256 257 257 256 255 254 254 257 261 263 267 269 270 270 269 270 271 273 274 277 277 277 281 280 278 280 283 282 284 285 290 286 283 285 289 292 292 294 297 299 293 283